Time,TemperatureF,DewpointF,PressureIn,WindDirection,WindDirectionDegrees,WindSpeedMPH,WindSpeedGustMPH,Humidity,HourlyPrecipIn,Conditions,Clouds,dailyrainin,SoftwareType,DateUTC
2013-03-26 00:00:00,43.4,31.2,29.83,WNW,288,7.0,7.0,62,0.00,,,0.00,Wunderground v.1.15,2013-03-26 04:00:00,
2013-03-26 00:10:00,43.0,31.3,29.84,WNW,294,7.0,7.0,63,0.00,,,0.00,Wunderground v.1.15,2013-03-26 04:10:00,
2013-03-26 00:15:00,42.9,31.6,29.84,West,260,7.0,14.0,64,0.00,,,0.00,Wunderground v.1.15,2013-03-26 04:15:00,
2013-03-26 00:20:00,42.8,31.8,29.84,WNW,297,7.0,14.0,65,0.00,,,0.00,Wunderground v.1.15,2013-03-26 04:20:00,
2013-03-26 00:25:00,42.8,31.5,29.84,WSW,246,8.0,14.0,64,0.00,,,0.00,Wunderground v.1.15,2013-03-26 04:25:00,
2013-03-26 00:30:00,42.7,31.7,29.84,WNW,285,9.0,14.0,65,0.00,,,0.00,Wunderground v.1.15,2013-03-26 04:30:00,
2013-03-26 00:35:00,42.6,31.7,29.85,WNW,293,9.0,14.0,65,0.00,,,0.00,Wunderground v.1.15,2013-03-26 04:35:00,
2013-03-26 00:40:00,42.5,31.2,29.85,NW,316,9.0,9.0,64,0.00,,,0.00,Wunderground v.1.15,2013-03-26 04:40:00,
2013-03-26 00:45:00,42.4,31.5,29.85,NNW,333,9.0,14.0,65,0.00,,,0.00,Wunderground v.1.15,2013-03-26 04:45:00,
2013-03-26 00:50:00,42.4,31.1,29.85,West,280,9.0,14.0,64,0.00,,,0.00,Wunderground v.1.15,2013-03-26 04:50:00,
2013-03-26 00:55:00,42.2,30.9,29.85,WNW,294,10.0,14.0,64,0.00,,,0.00,Wunderground v.1.15,2013-03-26 04:55:00,
2013-03-26 01:00:00,42.1,31.2,29.85,WNW,284,9.0,9.0,65,0.00,,,0.00,Wunderground v.1.15,2013-03-26 05:00:00,
2013-03-26 01:05:00,41.9,31.4,29.85,WNW,300,8.0,14.0,66,0.00,,,0.00,Wunderground v.1.15,2013-03-26 05:05:00,
2013-03-26 01:10:00,41.7,31.5,29.86,WNW,288,7.0,7.0,67,0.00,,,0.00,Wunderground v.1.15,2013-03-26 05:10:00,
2013-03-26 01:15:00,41.6,31.4,29.86,WNW,290,6.0,14.0,67,0.00,,,0.00,Wunderground v.1.15,2013-03-26 05:15:00,
2013-03-26 01:25:00,41.5,31.0,29.86,WNW,284,8.0,14.0,66,0.00,,,0.00,Wunderground v.1.15,2013-03-26 05:25:00,
2013-03-26 01:30:00,41.5,30.6,29.86,West,266,9.0,9.0,65,0.00,,,0.00,Wunderground v.1.15,2013-03-26 05:30:00,
2013-03-26 01:35:00,41.5,31.0,29.86,NW,311,9.0,12.0,66,0.00,,,0.00,Wunderground v.1.15,2013-03-26 05:35:00,
2013-03-26 01:40:00,41.5,30.6,29.86,West,277,10.0,14.0,65,0.00,,,0.00,Wunderground v.1.15,2013-03-26 05:40:00,
2013-03-26 01:45:00,41.4,30.5,29.86,NW,312,10.0,14.0,65,0.00,,,0.00,Wunderground v.1.15,2013-03-26 05:45:00,
2013-03-26 01:50:00,41.5,30.2,29.86,WNW,299,10.0,14.0,64,0.00,,,0.00,Wunderground v.1.15,2013-03-26 05:50:00,
2013-03-26 02:00:00,41.5,30.2,29.87,NW,307,11.0,11.0,64,0.00,,,0.00,Wunderground v.1.15,2013-03-26 06:00:00,
2013-03-26 02:05:00,41.4,29.7,29.87,WNW,297,11.0,17.0,63,0.00,,,0.00,Wunderground v.1.15,2013-03-26 06:05:00,
2013-03-26 02:15:00,41.2,30.3,29.87,WNW,297,9.0,12.0,65,0.00,,,0.00,Wunderground v.1.15,2013-03-26 06:15:00,
2013-03-26 02:20:00,41.1,29.8,29.87,WNW,291,10.0,17.0,64,0.00,,,0.00,Wunderground v.1.15,2013-03-26 06:20:00,
2013-03-26 02:25:00,41.1,29.8,29.87,NW,311,11.0,17.0,64,0.00,,,0.00,Wunderground v.1.15,2013-03-26 06:25:00,
2013-03-26 02:30:00,41.0,29.7,29.87,NW,305,11.0,11.0,64,0.00,,,0.00,Wunderground v.1.15,2013-03-26 06:30:00,
2013-03-26 02:35:00,41.0,29.7,29.88,NW,321,11.0,13.0,64,0.00,,,0.00,Wunderground v.1.15,2013-03-26 06:35:00,
2013-03-26 02:40:00,40.9,29.7,29.88,WNW,300,10.0,17.0,64,0.00,,,0.00,Wunderground v.1.15,2013-03-26 06:40:00,
2013-03-26 02:45:00,40.8,29.6,29.88,WNW,284,10.0,17.0,64,0.00,,,0.00,Wunderground v.1.15,2013-03-26 06:45:00,
2013-03-26 02:50:00,40.7,29.5,29.88,WNW,293,10.0,17.0,64,0.00,,,0.00,Wunderground v.1.15,2013-03-26 06:50:00,
2013-03-26 02:55:00,40.6,29.7,29.88,NW,309,9.0,17.0,65,0.00,,,0.00,Wunderground v.1.15,2013-03-26 06:55:00,
2013-03-26 03:00:00,40.5,29.3,29.88,WNW,293,9.0,21.0,64,0.00,,,0.00,Wunderground v.1.15,2013-03-26 07:00:00,
2013-03-26 03:05:00,40.4,29.6,29.88,WNW,294,9.0,21.0,65,0.00,,,0.00,Wunderground v.1.15,2013-03-26 07:05:00,
2013-03-26 03:10:00,40.3,29.5,29.88,NW,311,8.0,21.0,65,0.00,,,0.00,Wunderground v.1.15,2013-03-26 07:10:00,
2013-03-26 03:20:00,40.0,29.6,29.88,WNW,285,9.0,21.0,66,0.00,,,0.00,Wunderground v.1.15,2013-03-26 07:20:00,
2013-03-26 03:25:00,39.9,29.1,29.88,NNE,20,9.0,21.0,65,0.00,,,0.00,Wunderground v.1.15,2013-03-26 07:25:00,
2013-03-26 03:30:00,39.9,29.5,29.88,NW,307,9.0,9.0,66,0.00,,,0.00,Wunderground v.1.15,2013-03-26 07:30:00,
2013-03-26 03:35:00,39.9,28.7,29.88,WNW,291,11.0,11.0,64,0.00,,,0.00,Wunderground v.1.15,2013-03-26 07:35:00,
2013-03-26 03:40:00,39.7,28.9,29.88,WNW,293,10.0,21.0,65,0.00,,,0.00,Wunderground v.1.15,2013-03-26 07:40:00,
2013-03-26 03:45:00,39.6,29.5,29.88,NW,313,9.0,21.0,67,0.00,,,0.00,Wunderground v.1.15,2013-03-26 07:45:00,
2013-03-26 03:50:00,39.4,29.0,29.88,WNW,303,9.0,21.0,66,0.00,,,0.00,Wunderground v.1.15,2013-03-26 07:50:00,
2013-03-26 03:55:00,39.3,29.3,29.88,WNW,291,9.0,21.0,67,0.00,,,0.00,Wunderground v.1.15,2013-03-26 07:55:00,
2013-03-26 04:00:00,39.2,29.5,29.89,NW,322,9.0,9.0,68,0.00,,,0.00,Wunderground v.1.15,2013-03-26 08:00:00,
2013-03-26 04:05:00,39.2,29.2,29.89,NNW,327,9.0,18.0,67,0.00,,,0.00,Wunderground v.1.15,2013-03-26 08:05:00,
2013-03-26 04:10:00,39.0,29.0,29.89,WNW,303,9.0,9.0,67,0.00,,,0.00,Wunderground v.1.15,2013-03-26 08:10:00,
2013-03-26 04:15:00,38.8,29.1,29.89,WSW,255,8.0,10.0,68,0.00,,,0.00,Wunderground v.1.15,2013-03-26 08:15:00,
2013-03-26 04:20:00,38.8,29.1,29.89,NW,307,9.0,9.0,68,0.00,,,0.00,Wunderground v.1.15,2013-03-26 08:20:00,
2013-03-26 04:25:00,38.8,29.1,29.89,WNW,285,11.0,11.0,68,0.00,,,0.00,Wunderground v.1.15,2013-03-26 08:25:00,
2013-03-26 04:30:00,38.8,28.8,29.89,WNW,289,11.0,11.0,67,0.00,,,0.00,Wunderground v.1.15,2013-03-26 08:30:00,
2013-03-26 04:40:00,38.5,28.9,29.89,NW,307,10.0,18.0,68,0.00,,,0.00,Wunderground v.1.15,2013-03-26 08:40:00,
2013-03-26 04:45:00,38.4,28.8,29.89,WNW,299,10.0,18.0,68,0.00,,,0.00,Wunderground v.1.15,2013-03-26 08:45:00,
2013-03-26 04:50:00,38.3,28.3,29.89,WNW,300,11.0,18.0,67,0.00,,,0.00,Wunderground v.1.15,2013-03-26 08:50:00,
2013-03-26 04:55:00,38.2,28.6,29.89,WNW,300,11.0,18.0,68,0.00,,,0.00,Wunderground v.1.15,2013-03-26 08:55:00,
2013-03-26 05:00:00,38.2,28.6,29.89,WNW,297,11.0,17.0,68,0.00,,,0.00,Wunderground v.1.15,2013-03-26 09:00:00,
2013-03-26 05:05:00,38.0,28.4,29.89,WNW,293,11.0,17.0,68,0.00,,,0.00,Wunderground v.1.15,2013-03-26 09:05:00,
2013-03-26 05:10:00,37.9,28.3,29.89,WNW,299,10.0,17.0,68,0.00,,,0.00,Wunderground v.1.15,2013-03-26 09:10:00,
2013-03-26 05:15:00,37.9,28.3,29.89,WNW,297,10.0,17.0,68,0.00,,,0.00,Wunderground v.1.15,2013-03-26 09:15:00,
2013-03-26 05:20:00,37.8,28.2,29.89,NW,307,10.0,10.0,68,0.00,,,0.00,Wunderground v.1.15,2013-03-26 09:20:00,
2013-03-26 05:25:00,37.6,28.7,29.89,WNW,303,10.0,17.0,70,0.00,,,0.00,Wunderground v.1.15,2013-03-26 09:25:00,
2013-03-26 05:30:00,37.6,28.3,29.89,WNW,294,9.0,9.0,69,0.00,,,0.00,Wunderground v.1.15,2013-03-26 09:30:00,
2013-03-26 05:35:00,37.4,28.2,29.89,NW,304,9.0,17.0,69,0.00,,,0.00,Wunderground v.1.15,2013-03-26 09:35:00,
2013-03-26 05:40:00,37.4,28.2,29.89,WNW,299,9.0,9.0,69,0.00,,,0.00,Wunderground v.1.15,2013-03-26 09:40:00,
2013-03-26 05:45:00,37.3,28.4,29.90,NW,307,10.0,14.0,70,0.00,,,0.00,Wunderground v.1.15,2013-03-26 09:45:00,
2013-03-26 05:50:00,37.2,28.0,29.89,WNW,285,10.0,17.0,69,0.00,,,0.00,Wunderground v.1.15,2013-03-26 09:50:00,
2013-03-26 05:55:00,37.2,28.0,29.90,WNW,287,11.0,17.0,69,0.00,,,0.00,Wunderground v.1.15,2013-03-26 09:55:00,
2013-03-26 06:00:00,37.0,28.1,29.90,WNW,294,9.0,19.0,70,0.00,,,0.00,Wunderground v.1.15,2013-03-26 10:00:00,
2013-03-26 06:05:00,36.8,28.3,29.90,WNW,284,7.0,19.0,71,0.00,,,0.00,Wunderground v.1.15,2013-03-26 10:05:00,
2013-03-26 06:15:00,36.5,28.0,29.91,NW,304,7.0,12.0,71,0.00,,,0.00,Wunderground v.1.15,2013-03-26 10:15:00,
2013-03-26 06:20:00,36.4,28.2,29.91,NNW,345,7.0,19.0,72,0.00,,,0.00,Wunderground v.1.15,2013-03-26 10:20:00,
2013-03-26 06:25:00,36.3,28.1,29.91,NNW,333,7.0,19.0,72,0.00,,,0.00,Wunderground v.1.15,2013-03-26 10:25:00,
2013-03-26 06:30:00,36.1,28.3,29.91,WNW,299,6.0,6.0,73,0.00,,,0.00,Wunderground v.1.15,2013-03-26 10:30:00,
2013-03-26 06:35:00,36.0,27.8,29.91,WNW,293,7.0,12.0,72,0.00,,,0.00,Wunderground v.1.15,2013-03-26 10:35:00,
2013-03-26 06:40:00,35.9,28.1,29.91,NW,320,8.0,19.0,73,0.00,,,0.00,Wunderground v.1.15,2013-03-26 10:40:00,
2013-03-26 06:45:00,35.8,28.0,29.91,WNW,300,7.0,19.0,73,0.00,,,0.00,Wunderground v.1.15,2013-03-26 10:45:00,
2013-03-26 06:50:00,35.7,27.9,29.92,WNW,293,7.0,19.0,73,0.00,,,0.00,Wunderground v.1.15,2013-03-26 10:50:00,
2013-03-26 06:55:00,35.7,27.9,29.92,NNW,339,7.0,19.0,73,0.00,,,0.00,Wunderground v.1.15,2013-03-26 10:55:00,
2013-03-26 07:00:00,35.5,28.0,29.91,NW,316,6.0,14.0,74,0.00,,,0.00,Wunderground v.1.15,2013-03-26 11:00:00,
2013-03-26 07:05:00,35.4,27.9,29.92,North,352,6.0,14.0,74,0.00,,,0.00,Wunderground v.1.15,2013-03-26 11:05:00,
2013-03-26 07:10:00,35.2,28.1,29.92,NNE,23,5.0,5.0,75,0.00,,,0.00,Wunderground v.1.15,2013-03-26 11:10:00,
2013-03-26 07:15:00,35.2,28.1,29.92,NNW,327,6.0,8.0,75,0.00,,,0.00,Wunderground v.1.15,2013-03-26 11:15:00,
2013-03-26 07:20:00,35.1,28.0,29.92,NW,314,6.0,14.0,75,0.00,,,0.00,Wunderground v.1.15,2013-03-26 11:20:00,
2013-03-26 07:25:00,35.2,28.1,29.92,WNW,284,6.0,14.0,75,0.00,,,0.00,Wunderground v.1.15,2013-03-26 11:25:00,
2013-03-26 07:30:00,35.2,28.1,29.92,NW,319,5.0,14.0,75,0.00,,,0.00,Wunderground v.1.15,2013-03-26 11:30:00,
2013-03-26 07:35:00,35.3,28.2,29.92,NW,326,5.0,14.0,75,0.00,,,0.00,Wunderground v.1.15,2013-03-26 11:35:00,
2013-03-26 07:40:00,35.4,28.3,29.92,NNW,327,6.0,6.0,75,0.00,,,0.00,Wunderground v.1.15,2013-03-26 11:40:00,
2013-03-26 07:45:00,35.5,28.4,29.92,NW,313,6.0,14.0,75,0.00,,,0.00,Wunderground v.1.15,2013-03-26 11:45:00,
2013-03-26 07:50:00,35.7,28.6,29.92,NW,309,6.0,14.0,75,0.00,,,0.00,Wunderground v.1.15,2013-03-26 11:50:00,
2013-03-26 07:55:00,35.9,28.4,29.93,NW,307,6.0,14.0,74,0.00,,,0.00,Wunderground v.1.15,2013-03-26 11:55:00,
2013-03-26 08:00:00,36.2,28.4,29.93,WNW,297,7.0,7.0,73,0.00,,,0.00,Wunderground v.1.15,2013-03-26 12:00:00,
2013-03-26 08:05:00,36.5,28.7,29.93,NW,309,7.0,13.0,73,0.00,,,0.00,Wunderground v.1.15,2013-03-26 12:05:00,
2013-03-26 08:10:00,36.7,28.9,29.93,NW,307,7.0,13.0,73,0.00,,,0.00,Wunderground v.1.15,2013-03-26 12:10:00,
2013-03-26 08:15:00,37.0,28.8,29.94,West,281,7.0,13.0,72,0.00,,,0.00,Wunderground v.1.15,2013-03-26 12:15:00,
2013-03-26 08:20:00,37.3,29.1,29.93,WNW,300,7.0,13.0,72,0.00,,,0.00,Wunderground v.1.15,2013-03-26 12:20:00,
2013-03-26 08:25:00,37.7,29.1,29.93,WNW,293,7.0,13.0,71,0.00,,,0.00,Wunderground v.1.15,2013-03-26 12:25:00,
2013-03-26 08:30:00,38.0,29.4,29.94,WNW,287,7.0,13.0,71,0.00,,,0.00,Wunderground v.1.15,2013-03-26 12:30:00,
2013-03-26 08:35:00,38.3,29.4,29.94,WNW,300,7.0,13.0,70,0.00,,,0.00,Wunderground v.1.15,2013-03-26 12:35:00,
2013-03-26 08:40:00,38.6,28.9,29.94,WNW,298,7.0,13.0,68,0.00,,,0.00,Wunderground v.1.15,2013-03-26 12:40:00,
2013-03-26 08:45:00,39.0,29.0,29.93,NW,307,7.0,13.0,67,0.00,,,0.00,Wunderground v.1.15,2013-03-26 12:45:00,
2013-03-26 08:50:00,39.3,29.3,29.94,NW,309,7.0,13.0,67,0.00,,,0.00,Wunderground v.1.15,2013-03-26 12:50:00,
2013-03-26 08:55:00,39.7,29.6,29.94,NNW,346,7.0,13.0,67,0.00,,,0.00,Wunderground v.1.15,2013-03-26 12:55:00,
2013-03-26 09:05:00,40.3,29.5,29.94,NNW,341,6.0,13.0,65,0.00,,,0.00,Wunderground v.1.15,2013-03-26 13:05:00,
2013-03-26 09:10:00,40.7,29.5,29.94,NW,309,6.0,13.0,64,0.00,,,0.00,Wunderground v.1.15,2013-03-26 13:10:00,
2013-03-26 09:15:00,41.2,30.3,29.95,North,360,6.0,13.0,65,0.00,,,0.00,Wunderground v.1.15,2013-03-26 13:15:00,
2013-03-26 09:20:00,41.6,29.9,29.95,NW,324,6.0,13.0,63,0.00,,,0.00,Wunderground v.1.15,2013-03-26 13:20:00,
2013-03-26 09:25:00,41.7,29.2,29.95,NW,316,7.0,13.0,61,0.00,,,0.00,Wunderground v.1.15,2013-03-26 13:25:00,
2013-03-26 09:30:00,42.1,30.0,29.95,NNW,345,7.0,13.0,62,0.00,,,0.00,Wunderground v.1.15,2013-03-26 13:30:00,
2013-03-26 09:35:00,42.4,30.3,29.95,NNE,30,6.0,13.0,62,0.00,,,0.00,Wunderground v.1.15,2013-03-26 13:35:00,
2013-03-26 09:40:00,42.7,30.2,29.95,North,8,6.0,13.0,61,0.00,,,0.00,Wunderground v.1.15,2013-03-26 13:40:00,
2013-03-26 09:45:00,43.1,30.1,29.95,NNW,342,6.0,13.0,60,0.00,,,0.00,Wunderground v.1.15,2013-03-26 13:45:00,
2013-03-26 09:50:00,43.3,29.9,29.95,WNW,293,6.0,13.0,59,0.00,,,0.00,Wunderground v.1.15,2013-03-26 13:50:00,
2013-03-26 09:55:00,43.7,30.3,29.95,NW,321,6.0,13.0,59,0.00,,,0.00,Wunderground v.1.15,2013-03-26 13:55:00,
2013-03-26 10:00:00,43.9,30.5,29.96,WNW,296,6.0,6.0,59,0.00,,,0.00,Wunderground v.1.15,2013-03-26 14:00:00,
2013-03-26 10:05:00,44.0,30.2,29.96,ENE,68,7.0,7.0,58,0.00,,,0.00,Wunderground v.1.15,2013-03-26 14:05:00,
2013-03-26 10:10:00,44.3,30.0,29.95,NNW,340,7.0,14.0,57,0.00,,,0.00,Wunderground v.1.15,2013-03-26 14:10:00,
2013-03-26 10:15:00,44.5,30.6,29.95,NNE,13,7.0,14.0,58,0.00,,,0.00,Wunderground v.1.15,2013-03-26 14:15:00,
2013-03-26 10:20:00,44.5,30.6,29.95,West,276,7.0,7.0,58,0.00,,,0.00,Wunderground v.1.15,2013-03-26 14:20:00,
2013-03-26 10:25:00,45.2,30.4,29.95,NNW,331,6.0,14.0,56,0.00,,,0.00,Wunderground v.1.15,2013-03-26 14:25:00,
2013-03-26 10:30:00,45.3,30.5,29.95,NNW,346,6.0,6.0,56,0.00,,,0.00,Wunderground v.1.15,2013-03-26 14:30:00,
2013-03-26 10:35:00,45.5,31.1,29.95,West,276,6.0,14.0,57,0.00,,,0.00,Wunderground v.1.15,2013-03-26 14:35:00,
2013-03-26 10:40:00,45.8,30.5,29.95,NW,308,6.0,14.0,55,0.00,,,0.00,Wunderground v.1.15,2013-03-26 14:40:00,
2013-03-26 10:45:00,46.1,30.4,29.95,NNW,333,6.0,14.0,54,0.00,,,0.00,Wunderground v.1.15,2013-03-26 14:45:00,
2013-03-26 10:50:00,46.4,30.6,29.95,North,353,6.0,14.0,54,0.00,,,0.00,Wunderground v.1.15,2013-03-26 14:50:00,
2013-03-26 10:55:00,46.3,29.6,29.95,North,4,7.0,14.0,52,0.00,,,0.00,Wunderground v.1.15,2013-03-26 14:55:00,
2013-03-26 11:00:00,46.5,29.8,29.95,NNW,341,8.0,8.0,52,0.00,,,0.00,Wunderground v.1.15,2013-03-26 15:00:00,
2013-03-26 11:05:00,46.7,28.0,29.95,NNE,15,9.0,9.0,48,0.00,,,0.00,Wunderground v.1.15,2013-03-26 15:05:00,
2013-03-26 11:10:00,46.5,28.8,29.95,WNW,300,8.0,15.0,50,0.00,,,0.00,Wunderground v.1.15,2013-03-26 15:10:00,
2013-03-26 11:15:00,46.4,28.8,29.95,North,8,7.0,15.0,50,0.00,,,0.00,Wunderground v.1.15,2013-03-26 15:15:00,
2013-03-26 11:20:00,46.0,29.3,29.95,NW,310,8.0,15.0,52,0.00,,,0.00,Wunderground v.1.15,2013-03-26 15:20:00,
2013-03-26 11:25:00,47.3,30.1,29.95,NNE,30,7.0,15.0,51,0.00,,,0.00,Wunderground v.1.15,2013-03-26 15:25:00,
2013-03-26 11:30:00,47.2,28.5,29.95,WNW,298,6.0,15.0,48,0.00,,,0.00,Wunderground v.1.15,2013-03-26 15:30:00,
2013-03-26 11:35:00,47.7,29.5,29.95,NW,313,7.0,15.0,49,0.00,,,0.00,Wunderground v.1.15,2013-03-26 15:35:00,
2013-03-26 11:40:00,47.5,29.3,29.95,NW,321,6.0,6.0,49,0.00,,,0.00,Wunderground v.1.15,2013-03-26 15:40:00,
2013-03-26 11:45:00,48.1,29.8,29.95,NW,309,5.0,15.0,49,0.00,,,0.00,Wunderground v.1.15,2013-03-26 15:45:00,
2013-03-26 11:50:00,48.4,30.1,29.95,NW,319,5.0,15.0,49,0.00,,,0.00,Wunderground v.1.15,2013-03-26 15:50:00,
2013-03-26 11:55:00,48.6,29.3,29.95,WNW,297,6.0,15.0,47,0.00,,,0.00,Wunderground v.1.15,2013-03-26 15:55:00,
2013-03-26 12:00:00,48.5,29.7,29.95,WNW,290,6.0,15.0,48,0.00,,,0.00,Wunderground v.1.15,2013-03-26 16:00:00,
2013-03-26 12:05:00,48.4,30.1,29.95,NW,306,5.0,15.0,49,0.00,,,0.00,Wunderground v.1.15,2013-03-26 16:05:00,
2013-03-26 12:10:00,48.2,28.9,29.95,West,259,6.0,15.0,47,0.00,,,0.00,Wunderground v.1.15,2013-03-26 16:10:00,
2013-03-26 12:15:00,48.4,30.1,29.95,NW,317,6.0,15.0,49,0.00,,,0.00,Wunderground v.1.15,2013-03-26 16:15:00,
2013-03-26 12:20:00,48.6,29.8,29.95,NNW,340,6.0,15.0,48,0.00,,,0.00,Wunderground v.1.15,2013-03-26 16:20:00,
2013-03-26 12:25:00,48.9,29.0,29.95,NNW,340,6.0,15.0,46,0.00,,,0.00,Wunderground v.1.15,2013-03-26 16:25:00,
2013-03-26 12:30:00,48.9,30.1,29.94,NW,316,6.0,15.0,48,0.00,,,0.00,Wunderground v.1.15,2013-03-26 16:30:00,
2013-03-26 12:35:00,48.0,28.2,29.94,NW,314,7.0,15.0,46,0.00,,,0.00,Wunderground v.1.15,2013-03-26 16:35:00,
2013-03-26 12:40:00,48.5,28.6,29.94,WNW,294,8.0,8.0,46,0.00,,,0.00,Wunderground v.1.15,2013-03-26 16:40:00,
2013-03-26 12:45:00,48.3,29.5,29.94,NNW,343,8.0,9.0,48,0.00,,,0.00,Wunderground v.1.15,2013-03-26 16:45:00,
2013-03-26 12:50:00,48.6,28.7,29.94,WSW,249,8.0,8.0,46,0.00,,,0.00,Wunderground v.1.15,2013-03-26 16:50:00,
2013-03-26 13:00:00,48.9,29.0,29.94,NW,310,6.0,16.0,46,0.00,,,0.00,Wunderground v.1.15,2013-03-26 17:00:00,
2013-03-26 13:05:00,48.3,30.0,29.94,NW,316,7.0,16.0,49,0.00,,,0.00,Wunderground v.1.15,2013-03-26 17:05:00,
2013-03-26 13:10:00,48.1,29.8,29.94,North,352,8.0,8.0,49,0.00,,,0.00,Wunderground v.1.15,2013-03-26 17:10:00,
2013-03-26 13:15:00,48.6,30.3,29.94,NW,325,8.0,12.0,49,0.00,,,0.00,Wunderground v.1.15,2013-03-26 17:15:00,
2013-03-26 13:20:00,48.3,29.5,29.94,NNW,328,7.0,16.0,48,0.00,,,0.00,Wunderground v.1.15,2013-03-26 17:20:00,
2013-03-26 13:25:00,48.1,30.8,29.94,North,350,8.0,16.0,51,0.00,,,0.00,Wunderground v.1.15,2013-03-26 17:25:00,
2013-03-26 13:30:00,47.7,30.0,29.94,NW,307,8.0,8.0,50,0.00,,,0.00,Wunderground v.1.15,2013-03-26 17:30:00,
2013-03-26 13:35:00,48.0,30.7,29.94,NNW,336,8.0,16.0,51,0.00,,,0.00,Wunderground v.1.15,2013-03-26 17:35:00,
2013-03-26 13:45:00,47.9,29.6,29.94,NW,313,7.0,10.0,49,0.00,,,0.00,Wunderground v.1.15,2013-03-26 17:45:00,
2013-03-26 13:50:00,48.0,30.2,29.94,WNW,291,7.0,7.0,50,0.00,,,0.00,Wunderground v.1.15,2013-03-26 17:50:00,
2013-03-26 13:55:00,48.0,29.7,29.94,NNW,348,8.0,8.0,49,0.00,,,0.00,Wunderground v.1.15,2013-03-26 17:55:00,
2013-03-26 14:00:00,48.8,31.0,29.94,NW,315,8.0,16.0,50,0.00,,,0.00,Wunderground v.1.15,2013-03-26 18:00:00,
2013-03-26 14:10:00,49.1,29.7,29.94,NNW,334,7.0,7.0,47,0.00,,,0.00,Wunderground v.1.15,2013-03-26 18:10:00,
2013-03-26 14:15:00,48.9,29.5,29.94,NNW,340,8.0,8.0,47,0.00,,,0.00,Wunderground v.1.15,2013-03-26 18:15:00,
2013-03-26 14:20:00,48.8,29.4,29.94,NW,309,8.0,16.0,47,0.00,,,0.00,Wunderground v.1.15,2013-03-26 18:20:00,
2013-03-26 14:25:00,48.8,28.9,29.94,NW,319,8.0,16.0,46,0.00,,,0.00,Wunderground v.1.15,2013-03-26 18:25:00,
2013-03-26 14:30:00,48.4,29.1,29.94,NW,321,9.0,9.0,47,0.00,,,0.00,Wunderground v.1.15,2013-03-26 18:30:00,
2013-03-26 14:35:00,48.2,29.9,29.94,NW,318,9.0,11.0,49,0.00,,,0.00,Wunderground v.1.15,2013-03-26 18:35:00,
2013-03-26 14:40:00,48.5,30.7,29.94,NW,315,9.0,16.0,50,0.00,,,0.00,Wunderground v.1.15,2013-03-26 18:40:00,
2013-03-26 14:45:00,48.4,30.6,29.94,NNW,334,9.0,16.0,50,0.00,,,0.00,Wunderground v.1.15,2013-03-26 18:45:00,
2013-03-26 14:50:00,48.3,30.5,29.94,NW,311,9.0,9.0,50,0.00,,,0.00,Wunderground v.1.15,2013-03-26 18:50:00,
2013-03-26 14:55:00,48.4,30.6,29.94,NW,325,7.0,16.0,50,0.00,,,0.00,Wunderground v.1.15,2013-03-26 18:55:00,
2013-03-26 15:00:00,48.5,30.7,29.94,NW,306,6.0,16.0,50,0.00,,,0.00,Wunderground v.1.15,2013-03-26 19:00:00,
2013-03-26 15:05:00,48.3,30.5,29.94,NNW,329,7.0,16.0,50,0.00,,,0.00,Wunderground v.1.15,2013-03-26 19:05:00,
2013-03-26 15:10:00,47.9,30.1,29.94,NW,321,9.0,9.0,50,0.00,,,0.00,Wunderground v.1.15,2013-03-26 19:10:00,
2013-03-26 15:15:00,48.0,30.2,29.94,NW,326,8.0,16.0,50,0.00,,,0.00,Wunderground v.1.15,2013-03-26 19:15:00,
2013-03-26 15:20:00,47.8,30.0,29.94,NNW,335,8.0,16.0,50,0.00,,,0.00,Wunderground v.1.15,2013-03-26 19:20:00,
2013-03-26 15:25:00,47.9,31.6,29.94,NW,309,8.0,16.0,53,0.00,,,0.00,Wunderground v.1.15,2013-03-26 19:25:00,
2013-03-26 15:30:00,47.9,31.1,29.94,North,360,5.0,5.0,52,0.00,,,0.00,Wunderground v.1.15,2013-03-26 19:30:00,
2013-03-26 15:35:00,48.1,29.8,29.94,WSW,257,5.0,16.0,49,0.00,,,0.00,Wunderground v.1.15,2013-03-26 19:35:00,
2013-03-26 15:40:00,48.1,30.8,29.94,WNW,302,6.0,6.0,51,0.00,,,0.00,Wunderground v.1.15,2013-03-26 19:40:00,
2013-03-26 15:45:00,47.9,30.1,29.94,WNW,298,7.0,10.0,50,0.00,,,0.00,Wunderground v.1.15,2013-03-26 19:45:00,
2013-03-26 15:50:00,48.0,31.2,29.94,NW,317,8.0,16.0,52,0.00,,,0.00,Wunderground v.1.15,2013-03-26 19:50:00,
2013-03-26 15:55:00,48.1,31.8,29.95,North,11,8.0,16.0,53,0.00,,,0.00,Wunderground v.1.15,2013-03-26 19:55:00,
2013-03-26 16:00:00,48.3,31.0,29.95,North,5,7.0,18.0,51,0.00,,,0.00,Wunderground v.1.15,2013-03-26 20:00:00,
2013-03-26 16:05:00,48.5,30.7,29.95,North,360,6.0,18.0,50,0.00,,,0.00,Wunderground v.1.15,2013-03-26 20:05:00,
2013-03-26 16:10:00,48.5,31.2,29.95,NW,307,6.0,18.0,51,0.00,,,0.00,Wunderground v.1.15,2013-03-26 20:10:00,
2013-03-26 16:15:00,48.3,30.5,29.95,North,1,8.0,18.0,50,0.00,,,0.00,Wunderground v.1.15,2013-03-26 20:15:00,
2013-03-26 16:20:00,48.1,29.8,29.95,WNW,284,9.0,9.0,49,0.00,,,0.00,Wunderground v.1.15,2013-03-26 20:20:00,
2013-03-26 16:25:00,48.1,31.3,29.95,North,356,8.0,18.0,52,0.00,,,0.00,Wunderground v.1.15,2013-03-26 20:25:00,
2013-03-26 16:30:00,48.1,31.8,29.95,NW,306,7.0,7.0,53,0.00,,,0.00,Wunderground v.1.15,2013-03-26 20:30:00,
2013-03-26 16:35:00,48.2,31.9,29.95,WNW,296,5.0,18.0,53,0.00,,,0.00,Wunderground v.1.15,2013-03-26 20:35:00,
2013-03-26 16:40:00,48.1,30.8,29.95,NNW,346,6.0,18.0,51,0.00,,,0.00,Wunderground v.1.15,2013-03-26 20:40:00,
2013-03-26 16:45:00,48.2,30.9,29.96,NNW,330,6.0,18.0,51,0.00,,,0.00,Wunderground v.1.15,2013-03-26 20:45:00,
2013-03-26 16:50:00,48.1,30.8,29.96,NW,315,6.0,18.0,51,0.00,,,0.00,Wunderground v.1.15,2013-03-26 20:50:00,
2013-03-26 16:55:00,48.1,30.8,29.96,NW,307,7.0,18.0,51,0.00,,,0.00,Wunderground v.1.15,2013-03-26 20:55:00,
2013-03-26 17:05:00,48.4,31.1,29.96,WNW,301,6.0,16.0,51,0.00,,,0.00,Wunderground v.1.15,2013-03-26 21:05:00,
2013-03-26 17:10:00,48.4,31.6,29.96,WNW,300,6.0,16.0,52,0.00,,,0.00,Wunderground v.1.15,2013-03-26 21:10:00,
2013-03-26 17:15:00,48.4,32.0,29.96,NW,315,8.0,16.0,53,0.00,,,0.00,Wunderground v.1.15,2013-03-26 21:15:00,
2013-03-26 17:20:00,48.4,32.5,29.97,NE,41,7.0,16.0,54,0.00,,,0.00,Wunderground v.1.15,2013-03-26 21:20:00,
2013-03-26 17:25:00,48.3,31.9,29.97,NW,326,7.0,16.0,53,0.00,,,0.00,Wunderground v.1.15,2013-03-26 21:25:00,
2013-03-26 17:30:00,48.1,32.2,29.97,NNE,13,7.0,7.0,54,0.00,,,0.00,Wunderground v.1.15,2013-03-26 21:30:00,
2013-03-26 17:35:00,48.1,32.2,29.97,NW,309,6.0,16.0,54,0.00,,,0.00,Wunderground v.1.15,2013-03-26 21:35:00,
2013-03-26 17:40:00,48.0,31.7,29.97,WNW,301,6.0,16.0,53,0.00,,,0.00,Wunderground v.1.15,2013-03-26 21:40:00,
2013-03-26 17:45:00,48.0,32.6,29.97,NNW,327,7.0,16.0,55,0.00,,,0.00,Wunderground v.1.15,2013-03-26 21:45:00,
2013-03-26 17:50:00,48.0,33.0,29.98,WNW,296,7.0,16.0,56,0.00,,,0.00,Wunderground v.1.15,2013-03-26 21:50:00,
2013-03-26 17:55:00,47.9,32.0,29.98,NW,313,8.0,16.0,54,0.00,,,0.00,Wunderground v.1.15,2013-03-26 21:55:00,
2013-03-26 18:00:00,47.8,32.4,29.98,NW,319,8.0,17.0,55,0.00,,,0.00,Wunderground v.1.15,2013-03-26 22:00:00,
2013-03-26 18:05:00,47.9,32.9,29.98,NNW,337,7.0,17.0,56,0.00,,,0.00,Wunderground v.1.15,2013-03-26 22:05:00,
2013-03-26 18:10:00,48.2,33.2,29.98,NW,317,5.0,5.0,56,0.00,,,0.00,Wunderground v.1.15,2013-03-26 22:10:00,
2013-03-26 18:15:00,48.7,33.7,29.98,WNW,297,4.0,6.0,56,0.00,,,0.00,Wunderground v.1.15,2013-03-26 22:15:00,
2013-03-26 18:20:00,48.9,32.5,29.99,WNW,284,5.0,17.0,53,0.00,,,0.00,Wunderground v.1.15,2013-03-26 22:20:00,
2013-03-26 18:25:00,48.8,32.4,29.99,NNE,23,6.0,17.0,53,0.00,,,0.00,Wunderground v.1.15,2013-03-26 22:25:00,
2013-03-26 18:30:00,48.6,33.1,29.99,NNE,17,6.0,6.0,55,0.00,,,0.00,Wunderground v.1.15,2013-03-26 22:30:00,
2013-03-26 18:35:00,48.6,32.7,29.99,NW,305,6.0,9.0,54,0.00,,,0.00,Wunderground v.1.15,2013-03-26 22:35:00,
2013-03-26 18:40:00,48.4,33.0,29.99,WNW,300,6.0,6.0,55,0.00,,,0.00,Wunderground v.1.15,2013-03-26 22:40:00,
2013-03-26 18:50:00,47.7,33.2,30.00,NNE,15,5.0,5.0,57,0.00,,,0.00,Wunderground v.1.15,2013-03-26 22:50:00,
2013-03-26 18:55:00,47.5,33.4,30.00,NW,311,5.0,7.0,58,0.00,,,0.00,Wunderground v.1.15,2013-03-26 22:55:00,
2013-03-26 19:00:00,47.4,32.9,30.00,WNW,301,6.0,12.0,57,0.00,,,0.00,Wunderground v.1.15,2013-03-26 23:00:00,
2013-03-26 19:05:00,47.2,33.2,30.00,NNW,337,6.0,12.0,58,0.00,,,0.00,Wunderground v.1.15,2013-03-26 23:05:00,
2013-03-26 19:10:00,47.1,33.5,30.01,WNW,287,5.0,12.0,59,0.00,,,0.00,Wunderground v.1.15,2013-03-26 23:10:00,
2013-03-26 19:15:00,46.9,33.7,30.01,WNW,291,5.0,12.0,60,0.00,,,0.00,Wunderground v.1.15,2013-03-26 23:15:00,
2013-03-26 19:20:00,46.8,33.6,30.01,NW,304,5.0,5.0,60,0.00,,,0.00,Wunderground v.1.15,2013-03-26 23:20:00,
2013-03-26 19:25:00,46.7,33.5,30.01,WNW,297,4.0,6.0,60,0.00,,,0.00,Wunderground v.1.15,2013-03-26 23:25:00,
2013-03-26 19:30:00,46.6,33.9,30.01,WNW,299,4.0,12.0,61,0.00,,,0.00,Wunderground v.1.15,2013-03-26 23:30:00,
2013-03-26 19:35:00,46.5,33.8,30.02,WNW,282,4.0,12.0,61,0.00,,,0.00,Wunderground v.1.15,2013-03-26 23:35:00,
2013-03-26 19:40:00,46.3,34.0,30.02,WNW,300,3.0,12.0,62,0.00,,,0.00,Wunderground v.1.15,2013-03-26 23:40:00,
2013-03-26 19:45:00,46.0,34.1,30.02,NW,307,3.0,12.0,63,0.00,,,0.00,Wunderground v.1.15,2013-03-26 23:45:00,
2013-03-26 19:50:00,45.6,34.5,30.02,NNW,348,2.0,12.0,65,0.00,,,0.00,Wunderground v.1.15,2013-03-26 23:50:00,
2013-03-26 19:55:00,45.3,34.6,30.03,WNW,297,2.0,12.0,66,0.00,,,0.00,Wunderground v.1.15,2013-03-26 23:55:00,
2013-03-26 20:00:00,45.0,34.7,30.03,NW,317,2.0,2.0,67,0.00,,,0.00,Wunderground v.1.15,2013-03-27 00:00:00,
2013-03-26 20:10:00,44.8,34.5,30.03,WNW,300,2.0,10.0,67,0.00,,,0.00,Wunderground v.1.15,2013-03-27 00:10:00,
2013-03-26 20:15:00,44.8,34.5,30.03,NW,309,4.0,10.0,67,0.00,,,0.00,Wunderground v.1.15,2013-03-27 00:15:00,
2013-03-26 20:20:00,44.8,34.5,30.04,NW,309,4.0,10.0,67,0.00,,,0.00,Wunderground v.1.15,2013-03-27 00:20:00,
2013-03-26 20:25:00,44.9,34.6,30.04,WNW,295,4.0,10.0,67,0.00,,,0.00,Wunderground v.1.15,2013-03-27 00:25:00,
2013-03-26 20:30:00,44.9,34.6,30.04,WNW,294,5.0,10.0,67,0.00,,,0.00,Wunderground v.1.15,2013-03-27 00:30:00,
2013-03-26 20:35:00,44.9,34.2,30.04,WNW,301,6.0,10.0,66,0.00,,,0.00,Wunderground v.1.15,2013-03-27 00:35:00,
2013-03-26 20:45:00,45.0,34.3,30.05,WNW,297,6.0,10.0,66,0.00,,,0.00,Wunderground v.1.15,2013-03-27 00:45:00,
2013-03-26 20:50:00,45.0,34.3,30.05,WNW,291,6.0,10.0,66,0.00,,,0.00,Wunderground v.1.15,2013-03-27 00:50:00,
2013-03-26 20:55:00,44.9,34.6,30.05,NW,307,6.0,10.0,67,0.00,,,0.00,Wunderground v.1.15,2013-03-27 00:55:00,
2013-03-26 21:00:00,44.8,34.1,30.05,WNW,293,6.0,7.0,66,0.00,,,0.00,Wunderground v.1.15,2013-03-27 01:00:00,
2013-03-26 21:05:00,44.8,34.1,30.05,NW,307,7.0,7.0,66,0.00,,,0.00,Wunderground v.1.15,2013-03-27 01:05:00,
2013-03-26 21:10:00,44.6,34.3,30.06,NW,309,6.0,6.0,67,0.00,,,0.00,Wunderground v.1.15,2013-03-27 01:10:00,
2013-03-26 21:15:00,44.3,34.8,30.06,WNW,291,5.0,7.0,69,0.00,,,0.00,Wunderground v.1.15,2013-03-27 01:15:00,
2013-03-26 21:20:00,44.1,34.6,30.06,NW,315,5.0,5.0,69,0.00,,,0.00,Wunderground v.1.15,2013-03-27 01:20:00,
2013-03-26 21:25:00,44.1,34.2,30.07,WNW,297,5.0,7.0,68,0.00,,,0.00,Wunderground v.1.15,2013-03-27 01:25:00,
2013-03-26 21:30:00,44.0,34.5,30.07,NW,313,6.0,7.0,69,0.00,,,0.00,Wunderground v.1.15,2013-03-27 01:30:00,
2013-03-26 21:35:00,43.8,34.3,30.07,WNW,291,6.0,7.0,69,0.00,,,0.00,Wunderground v.1.15,2013-03-27 01:35:00,
2013-03-26 21:40:00,43.7,34.6,30.07,WNW,297,6.0,7.0,70,0.00,,,0.00,Wunderground v.1.15,2013-03-27 01:40:00,
2013-03-26 21:45:00,43.6,34.5,30.07,NNW,334,6.0,7.0,70,0.00,,,0.00,Wunderground v.1.15,2013-03-27 01:45:00,
2013-03-26 21:50:00,43.6,34.1,30.08,NW,323,7.0,7.0,69,0.00,,,0.00,Wunderground v.1.15,2013-03-27 01:50:00,
2013-03-26 21:55:00,43.5,34.0,30.08,WNW,301,7.0,7.0,69,0.00,,,0.00,Wunderground v.1.15,2013-03-27 01:55:00,
2013-03-26 22:00:00,43.3,33.8,30.08,NNW,347,6.0,6.0,69,0.00,,,0.00,Wunderground v.1.15,2013-03-27 02:00:00,
2013-03-26 22:05:00,43.1,34.0,30.08,WNW,283,4.0,10.0,70,0.00,,,0.00,Wunderground v.1.15,2013-03-27 02:05:00,
2013-03-26 22:10:00,42.9,33.8,30.08,NW,312,3.0,10.0,70,0.00,,,0.00,Wunderground v.1.15,2013-03-27 02:10:00,
2013-03-26 22:15:00,42.6,33.9,30.08,NW,311,3.0,10.0,71,0.00,,,0.00,Wunderground v.1.15,2013-03-27 02:15:00,
2013-03-26 22:20:00,42.4,34.0,30.08,NW,321,3.0,10.0,72,0.00,,,0.00,Wunderground v.1.15,2013-03-27 02:20:00,
2013-03-26 22:25:00,42.4,33.7,30.08,WNW,297,3.0,10.0,71,0.00,,,0.00,Wunderground v.1.15,2013-03-27 02:25:00,
2013-03-26 22:30:00,42.2,33.5,30.09,WNW,293,4.0,10.0,71,0.00,,,0.00,Wunderground v.1.15,2013-03-27 02:30:00,
2013-03-26 22:35:00,42.2,33.8,30.09,NW,307,4.0,10.0,72,0.00,,,0.00,Wunderground v.1.15,2013-03-27 02:35:00,
2013-03-26 22:40:00,42.1,33.7,30.09,WNW,297,4.0,10.0,72,0.00,,,0.00,Wunderground v.1.15,2013-03-27 02:40:00,
2013-03-26 22:45:00,42.1,33.7,30.09,WNW,301,4.0,10.0,72,0.00,,,0.00,Wunderground v.1.15,2013-03-27 02:45:00,
2013-03-26 22:50:00,42.2,33.8,30.09,NW,323,5.0,10.0,72,0.00,,,0.00,Wunderground v.1.15,2013-03-27 02:50:00,
2013-03-26 22:55:00,42.2,34.2,30.09,NW,313,5.0,10.0,73,0.00,,,0.00,Wunderground v.1.15,2013-03-27 02:55:00,
2013-03-26 23:00:00,42.1,34.1,30.09,WNW,283,5.0,8.0,73,0.00,,,0.00,Wunderground v.1.15,2013-03-27 03:00:00,
2013-03-26 23:05:00,42.0,34.0,30.09,NW,307,5.0,8.0,73,0.00,,,0.00,Wunderground v.1.15,2013-03-27 03:05:00,
2013-03-26 23:10:00,42.0,34.0,30.09,WNW,297,5.0,8.0,73,0.00,,,0.00,Wunderground v.1.15,2013-03-27 03:10:00,
2013-03-26 23:15:00,41.9,33.5,30.09,NW,316,4.0,8.0,72,0.00,,,0.00,Wunderground v.1.15,2013-03-27 03:15:00,
2013-03-26 23:25:00,42.0,34.0,30.09,NNW,347,4.0,8.0,73,0.00,,,0.00,Wunderground v.1.15,2013-03-27 03:25:00,
2013-03-26 23:30:00,42.1,33.7,30.09,NNW,336,5.0,8.0,72,0.00,,,0.00,Wunderground v.1.15,2013-03-27 03:30:00,
2013-03-26 23:35:00,42.2,33.8,30.09,WNW,295,4.0,8.0,72,0.00,,,0.00,Wunderground v.1.15,2013-03-27 03:35:00,
2013-03-26 23:40:00,42.2,33.8,30.10,WNW,293,4.0,8.0,72,0.00,,,0.00,Wunderground v.1.15,2013-03-27 03:40:00,
2013-03-26 23:45:00,42.2,33.8,30.10,NW,325,4.0,8.0,72,0.00,,,0.00,Wunderground v.1.15,2013-03-27 03:45:00,
2013-03-26 23:50:00,42.1,33.7,30.10,NW,309,4.0,8.0,72,0.00,,,0.00,Wunderground v.1.15,2013-03-27 03:50:00,
2013-03-26 23:55:00,42.1,33.7,30.10,NW,307,4.0,8.0,72,0.00,,,0.00,Wunderground v.1.15,2013-03-27 03:55:00,